Orbital Elements at Epoch 2459000.5 (2020-May-31.0) TDB
Reference: JPL 12 (heliocentric ecliptic J2000)
Element | Value | Uncertainty (1-sigma) | Units |
e | .1990140522181092 | 7.3712e-08 | |
a | 2.996930038448475 | 6.6459e-08 | au |
q | 2.40049884728267 | 2.1825e-07 | au |
i | 10.76139869441606 | 1.1875e-05 | deg |
node | 347.6475094051737 | 4.6371e-05 | deg |
peri | 92.37610729668484 | 5.9284e-05 | deg |
M | 136.4884776538019 | 3.805e-05 | deg |
tp | 2458282.033003796472 (2018-Jun-12.53300380) | 0.00018734 | TDB |
period | 1895.01797572482 5.19 | 6.3035e-05 1.726e-07 | d yr |
n | .1899718127276891 | 6.3191e-09 | deg/d |
Q | 3.59336122961428 | 7.9685e-08 | au |
|
| | Orbit Determination Parameters
Additional Information
|